Wetterdaten: Jahr 2010
Datum Temp Feuchte Luftdruck Regen Wind Richtung Sonnenschein UV Solar Windben
01.01.2010 -3,2 C 95 % 1000,4 hPa 0,0 l/m 0,0 km/h N 0,00 h 0,0 UV-I 12 W/m 0,0 km/h
02.01.2010 -3,3 C 94 % 1015,9 hPa 0,0 l/m 0,0 km/h N 0,00 h 0,0 UV-I 30 W/m 0,0 km/h
03.01.2010 -4,3 C 94 % 1019,5 hPa 0,0 l/m 0,0 km/h S 0,00 h 0,0 UV-I 12 W/m 0,0 km/h
04.01.2010 -6,1 C 92 % 1015,4 hPa 0,0 l/m 0,0 km/h N 0,00 h 0,0 UV-I 27 W/m 0,0 km/h
05.01.2010 -7,4 C 92 % 1006,5 hPa 0,0 l/m 0,0 km/h N 0,00 h 0,0 UV-I 22 W/m 0,0 km/h
06.01.2010 -4,5 C 92 % 1004,7 hPa 0,0 l/m 0,0 km/h N 0,00 h 0,0 UV-I 17 W/m 0,0 km/h
07.01.2010 -4,1 C 93 % 1012,1 hPa 0,0 l/m 0,0 km/h N 0,00 h 0,0 UV-I 31 W/m 0,0 km/h
08.01.2010 -5,8 C 93 % 1019,6 hPa 0,0 l/m 5,8 km/h S-SO 0,00 h 0,0 UV-I 24 W/m 15,3 km/h
09.01.2010 -3,8 C 91 % 1014,5 hPa 0,0 l/m 11,3 km/h S-SO 0,00 h 0,0 UV-I 14 W/m 21,7 km/h
10.01.2010 -3,8 C 93 % 1015,9 hPa 0,0 l/m 1,3 km/h S-SO 0,00 h 0,0 UV-I 21 W/m 5,6 km/h
11.01.2010 -4,3 C 92 % 1017,7 hPa 0,0 l/m 1,3 km/h S-SO 0,00 h 0,0 UV-I 17 W/m 4,0 km/h
12.01.2010 -5,8 C 91 % 1015,3 hPa 0,0 l/m 2,5 km/h S-SO 0,00 h 0,0 UV-I 28 W/m 12,1 km/h
13.01.2010 -5,7 C 91 % 1009,0 hPa 0,0 l/m 9,9 km/h S-SO 0,67 h 0,5 UV-I 63 W/m 23,8 km/h
14.01.2010 -1,7 C 94 % 1012,0 hPa 0,0 l/m 4,5 km/h S-SO 0,92 h 0,5 UV-I 87 W/m 8,9 km/h
15.01.2010 -1,2 C 94 % 1024,1 hPa 0,0 l/m 4,7 km/h S-SO 0,00 h 0,0 UV-I 48 W/m 8,8 km/h
16.01.2010 -3,0 C 93 % 1017,0 hPa 0,0 l/m 24,0 km/h S-SO 0,00 h 0,5 UV-I 54 W/m 35,4 km/h
17.01.2010 1,5 C 99 % 1014,9 hPa 19,4 l/m 10,8 km/h S-SO 0,00 h 0,0 UV-I 36 W/m 23,0 km/h
18.01.2010 2,2 C 99 % 1023,8 hPa 11,8 l/m 5,1 km/h W 0,00 h 0,5 UV-I 30 W/m 13,3 km/h
19.01.2010 1,7 C 99 % 1021,3 hPa 8,4 l/m 1,0 km/h W-NW 0,00 h 0,0 UV-I 31 W/m 3,2 km/h
20.01.2010 0,8 C 99 % 1017,0 hPa 0,0 l/m 3,1 km/h SO 0,25 h 0,5 UV-I 49 W/m 7,3 km/h
21.01.2010 -2,2 C 94 % 1023,9 hPa 0,0 l/m 4,1 km/h O-SO 0,00 h 0,5 UV-I 54 W/m 8,9 km/h
22.01.2010 -4,6 C 96 % 1027,2 hPa 0,0 l/m 10,7 km/h S-SO 0,00 h 0,6 UV-I 61 W/m 18,9 km/h
23.01.2010 -5,1 C 95 % 1025,2 hPa 0,0 l/m 10,0 km/h S-SO 0,00 h 0,6 UV-I 67 W/m 20,1 km/h
24.01.2010 -3,8 C 93 % 1025,0 hPa 0,0 l/m 5,4 km/h SO 0,00 h 0,5 UV-I 59 W/m 10,9 km/h
25.01.2010 -6,4 C 91 % 1030,9 hPa 0,0 l/m 1,2 km/h SO 0,17 h 0,0 UV-I 62 W/m 4,8 km/h
26.01.2010 -10,9 C 87 % 1040,3 hPa 0,2 l/m 1,0 km/h N-NO 4,75 h 0,0 UV-I 149 W/m 3,6 km/h
27.01.2010 -5,3 C 87 % 1020,3 hPa 0,0 l/m 11,8 km/h SW 0,25 h 0,0 UV-I 86 W/m 22,5 km/h
28.01.2010 -0,3 C 96 % 1001,2 hPa 0,0 l/m 11,5 km/h NW 0,00 h 0,5 UV-I 42 W/m 32,6 km/h
29.01.2010 -0,6 C 98 % 983,8 hPa 0,0 l/m 6,8 km/h S 0,00 h 0,0 UV-I 20 W/m 14,1 km/h
30.01.2010 -4,7 C 93 % 994,3 hPa 0,0 l/m 3,8 km/h N-NW 0,00 h 0,0 UV-I 17 W/m 7,3 km/h
31.01.2010 -1,4 C 92 % 1003,0 hPa 0,0 l/m 7,7 km/h S-SW 0,00 h 0,0 UV-I 18 W/m 21,3 km/h
01.02.2010 -2,1 C 95 % 1008,6 hPa 0,0 l/m 10,8 km/h S-SW 0,00 h 0,0 UV-I 23 W/m 21,8 km/h
02.02.2010 -0,1 C 93 % 1002,6 hPa 0,0 l/m 16,4 km/h S 0,00 h 0,0 UV-I 23 W/m 31,0 km/h
03.02.2010 -1,4 C 94 % 1010,4 hPa 0,0 l/m 4,9 km/h S 0,00 h 0,0 UV-I 13 W/m 8,4 km/h
04.02.2010 1,8 C 97 % 1013,2 hPa 6,2 l/m 7,7 km/h S-SO 1,17 h 0,8 UV-I 112 W/m 13,3 km/h
05.02.2010 1,0 C 94 % 1008,8 hPa 6,2 l/m 3,6 km/h S-SO 0,75 h 0,8 UV-I 115 W/m 9,6 km/h
06.02.2010 0,6 C 98 % 1014,6 hPa 0,6 l/m 0,9 km/h O 0,00 h 0,0 UV-I 42 W/m 3,2 km/h
07.02.2010 -2,2 C 94 % 1020,6 hPa 0,0 l/m 1,8 km/h NO 0,00 h 0,5 UV-I 69 W/m 6,8 km/h
08.02.2010 -6,4 C 91 % 1012,0 hPa 0,0 l/m 5,4 km/h SO 0,00 h 0,6 UV-I 75 W/m 14,9 km/h
09.02.2010 -6,4 C 89 % 1007,5 hPa 0,0 l/m 1,5 km/h SO 0,00 h 0,6 UV-I 72 W/m 3,6 km/h
10.02.2010 -6,6 C 90 % 1010,6 hPa 0,0 l/m 2,3 km/h N-NO 0,00 h 0,0 UV-I 49 W/m 6,9 km/h
11.02.2010 -4,2 C 93 % 1013,8 hPa 0,0 l/m 15,1 km/h N-NO 0,00 h 0,0 UV-I 44 W/m 26,2 km/h
12.02.2010 -4,3 C 92 % 1017,4 hPa 0,0 l/m 9,3 km/h N 0,58 h 0,7 UV-I 110 W/m 18,1 km/h
13.02.2010 -4,9 C 93 % 1016,2 hPa 0,0 l/m 0,9 km/h N-NW 0,00 h 0,0 UV-I 37 W/m 2,4 km/h
14.02.2010 -7,1 C 92 % 1013,8 hPa 0,0 l/m 1,7 km/h SO 1,40 h 0,6 UV-I 97 W/m 4,0 km/h
15.02.2010 -4,6 C 91 % 1008,0 hPa 0,0 l/m 9,3 km/h S-SO 2,08 h 1,0 UV-I 133 W/m 16,1 km/h
16.02.2010 -4,2 C 84 % 1003,0 hPa 1,0 l/m 12,7 km/h S-SO 7,00 h 1,1 UV-I 233 W/m 20,9 km/h
17.02.2010 -2,0 C 85 % 995,8 hPa 0,4 l/m 8,7 km/h S-SO 3,17 h 1,1 UV-I 168 W/m 16,1 km/h
18.02.2010 1,3 C 95 % 997,0 hPa 6,4 l/m 6,6 km/h S 0,42 h 0,6 UV-I 80 W/m 12,1 km/h
19.02.2010 2,0 C 90 % 992,8 hPa 0,8 l/m 13,8 km/h S 1,25 h 0,8 UV-I 126 W/m 24,9 km/h
20.02.2010 -0,1 C 84 % 997,6 hPa 0,2 l/m 8,8 km/h S-SW 1,92 h 0,8 UV-I 119 W/m 17,7 km/h
21.02.2010 0,1 C 90 % 999,0 hPa 1,2 l/m 8,3 km/h S-SW 3,33 h 1,1 UV-I 181 W/m 14,0 km/h
22.02.2010 3,1 C 94 % 989,3 hPa 3,6 l/m 12,4 km/h S-SO 0,67 h 0,8 UV-I 122 W/m 20,9 km/h
23.02.2010 0,8 C 97 % 995,3 hPa 7,6 l/m 4,2 km/h N-NO 0,00 h 0,5 UV-I 60 W/m 10,1 km/h
24.02.2010 4,6 C 92 % 999,3 hPa 6,0 l/m 10,0 km/h S 3,58 h 1,0 UV-I 191 W/m 17,3 km/h
25.02.2010 5,1 C 90 % 994,9 hPa 1,2 l/m 9,7 km/h S 0,25 h 0,8 UV-I 88 W/m 15,3 km/h
26.02.2010 5,3 C 89 % 993,2 hPa 8,0 l/m 11,3 km/h S 0,67 h 0,8 UV-I 114 W/m 23,0 km/h
27.02.2010 5,0 C 80 % 999,6 hPa 0,2 l/m 11,7 km/h S 1,50 h 0,7 UV-I 126 W/m 20,5 km/h
28.02.2010 5,2 C 88 % 985,9 hPa 7,4 l/m 25,0 km/h S-SO 1,08 h 1,0 UV-I 108 W/m 49,4 km/h
01.03.2010 2,4 C 86 % 1008,9 hPa 5,0 l/m 12,5 km/h W-SW 1,25 h 0,8 UV-I 117 W/m 31,0 km/h
02.03.2010 1,0 C 87 % 1021,0 hPa 0,0 l/m 5,6 km/h W 1,75 h 0,9 UV-I 164 W/m 17,3 km/h
03.03.2010 0,0 C 87 % 1021,5 hPa 0,0 l/m 1,3 km/h NW 2,50 h 1,0 UV-I 189 W/m 3,6 km/h
04.03.2010 -1,5 C 79 % 1020,5 hPa 0,0 l/m 4,4 km/h N 2,83 h 0,9 UV-I 184 W/m 10,5 km/h
05.03.2010 -1,8 C 86 % 1019,2 hPa 0,0 l/m 11,1 km/h NW 5,42 h 1,2 UV-I 249 W/m 21,7 km/h
06.03.2010 -3,8 C 85 % 1024,9 hPa 4,8 l/m 7,0 km/h N-NO 3,00 h 0,8 UV-I 156 W/m 17,7 km/h
07.03.2010 -7,5 C 79 % 1033,2 hPa 2,8 l/m 1,1 km/h N-NO 8,17 h 1,4 UV-I 316 W/m 4,8 km/h
08.03.2010 -3,1 C 80 % 1027,3 hPa 1,0 l/m 1,9 km/h NO 3,58 h 1,2 UV-I 198 W/m 8,0 km/h
09.03.2010 -4,0 C 64 % 1029,1 hPa 0,4 l/m 2,6 km/h N-NO 8,50 h 1,5 UV-I 313 W/m 7,6 km/h
10.03.2010 -1,7 C 77 % 1025,0 hPa 0,2 l/m 7,6 km/h N-NO 8,75 h 1,5 UV-I 317 W/m 17,7 km/h
11.03.2010 -2,4 C 89 % 1019,2 hPa 0,0 l/m 2,8 km/h N-NO 4,33 h 1,6 UV-I 244 W/m 8,0 km/h
12.03.2010 1,3 C 89 % 1018,7 hPa 1,2 l/m 5,7 km/h W 0,17 h 0,9 UV-I 122 W/m 15,3 km/h
13.03.2010 2,1 C 94 % 1021,7 hPa 1,6 l/m 10,7 km/h NW 0,00 h 0,7 UV-I 74 W/m 24,5 km/h
14.03.2010 2,1 C 94 % 1019,0 hPa 4,6 l/m 14,0 km/h NW 0,00 h 0,6 UV-I 44 W/m 30,5 km/h
15.03.2010 2,3 C 96 % 1018,8 hPa 10,8 l/m 11,2 km/h NW 1,67 h 1,0 UV-I 128 W/m 25,0 km/h
16.03.2010 2,7 C 90 % 1025,4 hPa 1,2 l/m 3,0 km/h N-NW 2,83 h 1,3 UV-I 210 W/m 6,5 km/h
17.03.2010 6,5 C 76 % 1023,9 hPa 0,0 l/m 5,7 km/h S-SW 6,58 h 1,3 UV-I 256 W/m 12,1 km/h
18.03.2010 9,1 C 68 % 1020,2 hPa 0,0 l/m 6,8 km/h S 8,75 h 1,6 UV-I 317 W/m 11,3 km/h
19.03.2010 10,9 C 76 % 1015,3 hPa 0,0 l/m 4,8 km/h S 0,00 h 0,8 UV-I 82 W/m 10,1 km/h
20.03.2010 11,6 C 90 % 1008,4 hPa 7,8 l/m 9,2 km/h S 0,08 h 0,7 UV-I 76 W/m 16,5 km/h
21.03.2010 7,4 C 96 % 1015,2 hPa 9,4 l/m 3,4 km/h S 0,00 h 0,6 UV-I 51 W/m 7,3 km/h
22.03.2010 4,8 C 91 % 1021,1 hPa 0,2 l/m 2,9 km/h S 4,92 h 1,5 UV-I 222 W/m 6,0 km/h
23.03.2010 6,2 C 84 % 1019,3 hPa 0,0 l/m 3,3 km/h S 3,67 h 1,5 UV-I 191 W/m 9,7 km/h
24.03.2010 11,0 C 70 % 1012,3 hPa 0,0 l/m 9,5 km/h S-SO 7,25 h 1,6 UV-I 283 W/m 14,1 km/h
25.03.2010 13,4 C 68 % 1006,9 hPa 0,0 l/m 6,2 km/h S-SO 5,83 h 1,6 UV-I 276 W/m 11,3 km/h
26.03.2010 8,0 C 89 % 1005,3 hPa 8,2 l/m 2,7 km/h S 2,67 h 1,4 UV-I 200 W/m 8,0 km/h
27.03.2010 8,0 C 82 % 1005,4 hPa 1,8 l/m 5,2 km/h S-SW 1,17 h 1,0 UV-I 141 W/m 15,3 km/h
28.03.2010 7,3 C 85 % 1007,6 hPa 10,2 l/m 6,3 km/h S-SW 3,17 h 1,3 UV-I 211 W/m 19,7 km/h
29.03.2010 6,8 C 92 % 1004,5 hPa 8,6 l/m 3,1 km/h S-SO 1,25 h 1,1 UV-I 151 W/m 6,4 km/h
30.03.2010 10,7 C 83 % 995,0 hPa 2,2 l/m 7,3 km/h S-SO 2,92 h 1,6 UV-I 226 W/m 14,5 km/h
31.03.2010 5,6 C 76 % 1000,0 hPa 0,0 l/m 11,5 km/h S 6,75 h 1,6 UV-I 325 W/m 21,7 km/h
01.04.2010 2,8 C 81 % 1010,8 hPa 1,4 l/m 8,8 km/h S 2,50 h 1,3 UV-I 185 W/m 17,7 km/h
02.04.2010 5,4 C 64 % 1014,0 hPa 0,2 l/m 14,9 km/h S 9,92 h 1,8 UV-I 371 W/m 22,9 km/h
03.04.2010 7,6 C 78 % 1009,2 hPa 0,0 l/m 12,3 km/h S-SO 4,75 h 1,4 UV-I 266 W/m 18,9 km/h
04.04.2010 6,4 C 87 % 1010,5 hPa 7,6 l/m 13,5 km/h S-SO 1,83 h 1,3 UV-I 175 W/m 25,8 km/h
05.04.2010 7,3 C 70 % 1025,5 hPa 0,6 l/m 3,7 km/h W 1,92 h 1,3 UV-I 196 W/m 12,1 km/h
06.04.2010 8,8 C 67 % 1023,1 hPa 0,0 l/m 9,8 km/h S-SO 10,42 h 2,1 UV-I 401 W/m 15,7 km/h
07.04.2010 11,9 C 59 % 1018,4 hPa 0,0 l/m 10,9 km/h SO 10,42 h 2,2 UV-I 395 W/m 17,3 km/h
08.04.2010 8,4 C 88 % 1025,4 hPa 0,0 l/m 7,4 km/h N-NW 0,42 h 1,0 UV-I 136 W/m 14,5 km/h
09.04.2010 7,6 C 82 % 1031,0 hPa 0,2 l/m 1,7 km/h N-NW 4,17 h 1,6 UV-I 236 W/m 4,8 km/h
10.04.2010 5,4 C 79 % 1029,0 hPa 0,0 l/m 4,2 km/h N-NW 2,00 h 1,2 UV-I 179 W/m 9,2 km/h
11.04.2010 4,7 C 86 % 1025,4 hPa 0,8 l/m 6,3 km/h N-NO 2,92 h 1,1 UV-I 177 W/m 13,3 km/h
12.04.2010 6,2 C 87 % 1021,0 hPa 0,4 l/m 7,1 km/h N-NO 4,50 h 1,4 UV-I 243 W/m 14,4 km/h
13.04.2010 9,3 C 69 % 1017,5 hPa 0,0 l/m 3,9 km/h N-NO 8,92 h 1,8 UV-I 341 W/m 8,8 km/h
14.04.2010 8,8 C 70 % 1017,2 hPa 0,0 l/m 4,4 km/h N-NO 7,90 h 1,9 UV-I 339 W/m 11,7 km/h
15.04.2010 9,3 C 61 % 1018,7 hPa 0,0 l/m 2,1 km/h N-NO 7,33 h 2,1 UV-I 330 W/m 6,8 km/h
16.04.2010 5,7 C 74 % 1022,7 hPa 0,0 l/m 4,1 km/h N-NW 2,08 h 1,2 UV-I 194 W/m 8,4 km/h
17.04.2010 6,6 C 69 % 1020,9 hPa 0,0 l/m 1,0 km/h S 10,83 h 2,5 UV-I 428 W/m 2,4 km/h
18.04.2010 10,7 C 59 % 1012,9 hPa 0,0 l/m 2,2 km/h S 11,58 h 2,5 UV-I 436 W/m 5,2 km/h
19.04.2010 5,7 C 77 % 1015,8 hPa 0,0 l/m 1,5 km/h N-NO 2,25 h 1,6 UV-I 212 W/m 3,6 km/h
20.04.2010 7,3 C 63 % 1014,1 hPa 0,0 l/m 9,0 km/h NW 6,67 h 2,0 UV-I 304 W/m 16,1 km/h
21.04.2010 4,5 C 70 % 1016,5 hPa 0,0 l/m 6,0 km/h NW 2,92 h 1,8 UV-I 245 W/m 22,1 km/h
22.04.2010 3,4 C 77 % 1017,4 hPa 0,0 l/m 1,4 km/h NW 7,00 h 2,0 UV-I 336 W/m 4,8 km/h
23.04.2010 7,6 C 62 % 1017,0 hPa 0,0 l/m 2,5 km/h N-NO 11,92 h 2,4 UV-I 434 W/m 7,2 km/h
24.04.2010 12,1 C 55 % 1021,0 hPa 0,0 l/m 1,8 km/h N-NO 11,50 h 2,5 UV-I 410 W/m 7,6 km/h
25.04.2010 15,9 C 50 % 1020,8 hPa 0,0 l/m 5,1 km/h S-SO 10,50 h 2,7 UV-I 414 W/m 11,3 km/h
26.04.2010 10,5 C 92 % 1023,1 hPa 10,8 l/m 3,2 km/h W 0,42 h 1,1 UV-I 123 W/m 9,7 km/h
27.04.2010 10,3 C 82 % 1027,1 hPa 0,8 l/m 2,9 km/h W 4,42 h 2,1 UV-I 275 W/m 9,2 km/h
28.04.2010 14,1 C 67 % 1022,9 hPa 0,0 l/m 3,1 km/h S 10,00 h 2,7 UV-I 402 W/m 7,2 km/h
29.04.2010 17,5 C 60 % 1010,9 hPa 0,0 l/m 5,6 km/h S 7,58 h 2,4 UV-I 329 W/m 10,9 km/h
30.04.2010 13,0 C 76 % 1008,7 hPa 0,0 l/m 6,5 km/h NW 2,17 h 1,4 UV-I 193 W/m 15,7 km/h
01.05.2010 11,6 C 73 % 1009,8 hPa 0,0 l/m 4,6 km/h S 5,17 h 2,2 UV-I 321 W/m 14,1 km/h
02.05.2010 10,0 C 88 % 1009,1 hPa 3,8 l/m 7,0 km/h NO 1,75 h 1,7 UV-I 197 W/m 14,9 km/h
03.05.2010 7,2 C 95 % 1012,4 hPa 2,0 l/m 1,8 km/h NW 0,00 h 0,9 UV-I 106 W/m 5,2 km/h
04.05.2010 5,8 C 77 % 1020,2 hPa 0,4 l/m 4,3 km/h N 2,17 h 1,4 UV-I 202 W/m 11,3 km/h
05.05.2010 6,8 C 69 % 1016,3 hPa 0,0 l/m 5,0 km/h N-NO 11,00 h 2,6 UV-I 422 W/m 12,5 km/h
06.05.2010 4,4 C 95 % 1004,9 hPa 13,4 l/m 12,2 km/h N-NO 0,00 h 0,6 UV-I 44 W/m 22,6 km/h
07.05.2010 5,3 C 94 % 1006,9 hPa 4,8 l/m 1,4 km/h NW 0,00 h 1,0 UV-I 98 W/m 4,0 km/h
08.05.2010 7,7 C 87 % 1010,4 hPa 0,0 l/m 1,7 km/h S-SW 0,00 h 1,2 UV-I 161 W/m 3,6 km/h
09.05.2010 10,0 C 82 % 1008,7 hPa 0,0 l/m 4,4 km/h N-NO 2,92 h 1,7 UV-I 236 W/m 9,7 km/h
10.05.2010 7,0 C 82 % 1009,5 hPa 0,4 l/m 2,0 km/h N-NO 0,25 h 1,2 UV-I 147 W/m 6,0 km/h
11.05.2010 8,8 C 85 % 1007,3 hPa 0,0 l/m 5,0 km/h N-NO 1,00 h 1,5 UV-I 155 W/m 14,5 km/h
12.05.2010 6,8 C 94 % 1008,1 hPa 1,8 l/m 6,1 km/h S-SW 0,00 h 0,7 UV-I 70 W/m 16,9 km/h
13.05.2010 6,2 C 94 % 1012,3 hPa 0,6 l/m 1,2 km/h NW 0,00 h 0,9 UV-I 91 W/m 3,6 km/h
14.05.2010 7,8 C 82 % 1011,7 hPa 0,2 l/m 2,8 km/h N-NO 0,42 h 1,5 UV-I 162 W/m 6,8 km/h
15.05.2010 6,0 C 90 % 1010,8 hPa 0,8 l/m 4,5 km/h N-NW 0,50 h 1,3 UV-I 159 W/m 12,1 km/h
16.05.2010 10,0 C 70 % 1014,8 hPa 0,0 l/m 5,7 km/h W-NW 2,67 h 1,8 UV-I 242 W/m 16,0 km/h
17.05.2010 8,3 C 90 % 1021,2 hPa 1,4 l/m 4,2 km/h S-SW 3,75 h 1,8 UV-I 249 W/m 9,6 km/h
18.05.2010 8,4 C 76 % 1025,4 hPa 0,4 l/m 10,8 km/h N-NW 2,25 h 1,6 UV-I 208 W/m 20,9 km/h
19.05.2010 8,8 C 85 % 1025,0 hPa 1,6 l/m 6,3 km/h N-NW 0,00 h 0,9 UV-I 67 W/m 12,9 km/h
20.05.2010 10,5 C 79 % 1028,4 hPa 0,4 l/m 1,7 km/h N-NW 0,17 h 1,1 UV-I 107 W/m 4,8 km/h
21.05.2010 14,0 C 73 % 1027,5 hPa 0,0 l/m 2,1 km/h N-NW 10,00 h 3,2 UV-I 435 W/m 4,0 km/h
22.05.2010 13,9 C 84 % 1024,5 hPa 0,0 l/m 2,0 km/h N-NW 8,50 h 3,0 UV-I 380 W/m 5,6 km/h
23.05.2010 15,9 C 81 % 1020,5 hPa 0,0 l/m 4,0 km/h W-NW 5,42 h 3,1 UV-I 327 W/m 8,4 km/h
24.05.2010 16,9 C 69 % 1010,4 hPa 1,2 l/m 6,7 km/h NW 9,00 h 2,9 UV-I 395 W/m 14,9 km/h
25.05.2010 13,2 C 67 % 1011,2 hPa 0,0 l/m 6,8 km/h N-NW 8,75 h 3,4 UV-I 442 W/m 16,9 km/h
26.05.2010 9,9 C 84 % 1007,4 hPa 6,6 l/m 4,0 km/h N-NO 4,50 h 1,8 UV-I 215 W/m 10,5 km/h
27.05.2010 11,7 C 85 % 1009,2 hPa 0,2 l/m 1,4 km/h N-NW 3,58 h 2,2 UV-I 250 W/m 3,2 km/h
28.05.2010 12,7 C 68 % 1013,7 hPa 0,8 l/m 3,2 km/h W-NW 5,00 h 2,3 UV-I 262 W/m 8,8 km/h
29.05.2010 13,7 C 70 % 1015,5 hPa 0,0 l/m 2,4 km/h S 8,58 h 2,8 UV-I 378 W/m 9,2 km/h
30.05.2010 10,8 C 91 % 1005,4 hPa 13,8 l/m 12,6 km/h S 2,25 h 2,3 UV-I 240 W/m 27,7 km/h
31.05.2010 9,7 C 96 % 1012,6 hPa 4,4 l/m 2,9 km/h NW 0,00 h 0,9 UV-I 86 W/m 9,3 km/h
01.06.2010 14,7 C 75 % 1013,9 hPa 0,0 l/m 5,9 km/h N-NW 6,50 h 3,3 UV-I 375 W/m 11,6 km/h
02.06.2010 14,2 C 79 % 1017,0 hPa 0,0 l/m 7,4 km/h N-NW 3,00 h 1,8 UV-I 217 W/m 14,9 km/h
03.06.2010 16,3 C 68 % 1019,6 hPa 0,0 l/m 3,5 km/h N-NO 13,00 h 3,5 UV-I 486 W/m 7,6 km/h
04.06.2010 16,0 C 67 % 1020,2 hPa 0,0 l/m 1,5 km/h N-NW 13,00 h 3,6 UV-I 486 W/m 3,6 km/h
05.06.2010 19,3 C 64 % 1018,1 hPa 0,0 l/m 1,2 km/h N-NO 12,83 h 3,4 UV-I 476 W/m 4,4 km/h
06.06.2010 20,0 C 71 % 1009,6 hPa 0,0 l/m 7,7 km/h S 7,83 h 3,0 UV-I 358 W/m 15,7 km/h
07.06.2010 15,3 C 79 % 1009,8 hPa 0,0 l/m 4,5 km/h S-SW 2,17 h 1,8 UV-I 179 W/m 13,3 km/h
08.06.2010 18,0 C 76 % 1006,3 hPa 0,0 l/m 12,0 km/h S 7,25 h 2,9 UV-I 350 W/m 21,3 km/h
09.06.2010 20,6 C 74 % 1005,8 hPa 0,0 l/m 3,9 km/h S 5,42 h 2,8 UV-I 302 W/m 10,4 km/h
10.06.2010 20,7 C 80 % 1005,1 hPa 19,4 l/m 1,3 km/h S-SO 4,33 h 2,7 UV-I 291 W/m 5,2 km/h
11.06.2010 19,4 C 74 % 1006,0 hPa 1,6 l/m 10,2 km/h S 7,83 h 2,8 UV-I 374 W/m 24,9 km/h
12.06.2010 12,6 C 91 % 1011,2 hPa 1,6 l/m 0,9 km/h NW 0,42 h 0,8 UV-I 76 W/m 4,0 km/h
13.06.2010 11,8 C 80 % 1015,3 hPa 0,0 l/m 1,1 km/h N-NW 5,83 h 2,4 UV-I 318 W/m 4,0 km/h
14.06.2010 14,8 C 72 % 1016,1 hPa 0,0 l/m 1,3 km/h N-NO 9,92 h 3,1 UV-I 427 W/m 6,8 km/h
15.06.2010 13,2 C 69 % 1022,1 hPa 0,0 l/m 7,4 km/h N-NO 9,08 h 2,8 UV-I 384 W/m 15,3 km/h
16.06.2010 15,5 C 64 % 1021,3 hPa 0,0 l/m 5,4 km/h N-NO 12,67 h 3,7 UV-I 483 W/m 12,9 km/h
17.06.2010 17,1 C 60 % 1016,9 hPa 0,0 l/m 4,8 km/h N-NO 13,08 h 3,6 UV-I 479 W/m 11,6 km/h
18.06.2010 12,9 C 78 % 1011,3 hPa 0,0 l/m 10,5 km/h N-NW 1,42 h 1,6 UV-I 162 W/m 22,5 km/h
19.06.2010 9,3 C 86 % 1007,0 hPa 4,2 l/m 4,2 km/h N-NW 3,33 h 2,0 UV-I 236 W/m 14,5 km/h
20.06.2010 11,4 C 81 % 1013,9 hPa 1,6 l/m 4,3 km/h NW 1,50 h 1,8 UV-I 214 W/m 10,5 km/h
21.06.2010 10,6 C 83 % 1020,3 hPa 0,0 l/m 1,9 km/h NW 2,17 h 2,1 UV-I 225 W/m 4,8 km/h
22.06.2010 13,8 C 81 % 1023,1 hPa 0,0 l/m 0,6 km/h N-NO 5,00 h 2,6 UV-I 314 W/m 2,4 km/h
23.06.2010 16,8 C 71 % 1021,3 hPa 0,0 l/m 0,8 km/h S 11,58 h 3,4 UV-I 437 W/m 2,0 km/h
24.06.2010 19,0 C 71 % 1017,1 hPa 0,0 l/m 1,9 km/h NW 13,08 h 3,6 UV-I 475 W/m 3,6 km/h
25.06.2010 18,2 C 68 % 1015,6 hPa 0,0 l/m 4,0 km/h N 8,75 h 2,6 UV-I 362 W/m 9,3 km/h
26.06.2010 18,3 C 63 % 1017,8 hPa 0,0 l/m 1,7 km/h N-NO 12,17 h 3,9 UV-I 482 W/m 6,0 km/h
27.06.2010 20,5 C 62 % 1019,1 hPa 0,0 l/m 3,2 km/h SO 13,08 h 3,7 UV-I 479 W/m 8,1 km/h
28.06.2010 23,2 C 61 % 1017,6 hPa 0,0 l/m 1,2 km/h SO 12,00 h 3,2 UV-I 444 W/m 3,6 km/h
29.06.2010 20,8 C 74 % 1017,6 hPa 0,0 l/m 2,7 km/h S 9,75 h 3,2 UV-I 400 W/m 6,4 km/h
30.06.2010 21,0 C 70 % 1018,3 hPa 0,0 l/m 2,6 km/h NW 11,33 h 3,5 UV-I 428 W/m 8,8 km/h
01.07.2010 22,5 C 66 % 1015,0 hPa 0,0 l/m 1,2 km/h SO 8,67 h 2,7 UV-I 339 W/m 4,8 km/h
02.07.2010 24,8 C 61 % 1014,7 hPa 0,0 l/m 1,6 km/h S 12,33 h 3,3 UV-I 423 W/m 4,8 km/h
03.07.2010 23,8 C 71 % 1015,1 hPa 0,6 l/m 1,7 km/h S 9,75 h 3,5 UV-I 435 W/m 6,0 km/h
04.07.2010 21,0 C 79 % 1018,0 hPa 0,0 l/m 2,0 km/h N-NW 4,08 h 1,9 UV-I 227 W/m 6,4 km/h
05.07.2010 19,1 C 75 % 1017,8 hPa 0,0 l/m 3,3 km/h NW 7,42 h 3,1 UV-I 338 W/m 9,2 km/h
06.07.2010 16,8 C 67 % 1021,8 hPa 0,2 l/m 4,6 km/h N-NW 5,08 h 2,0 UV-I 268 W/m 12,1 km/h
07.07.2010 19,1 C 62 % 1021,6 hPa 0,0 l/m 0,5 km/h S 12,50 h 4,0 UV-I 476 W/m 2,4 km/h
08.07.2010 24,0 C 56 % 1018,6 hPa 0,0 l/m 1,3 km/h S 12,17 h 3,5 UV-I 447 W/m 4,0 km/h
09.07.2010 26,3 C 53 % 1017,0 hPa 0,0 l/m 4,3 km/h S 10,75 h 3,3 UV-I 416 W/m 8,8 km/h
10.07.2010 28,0 C 58 % 1016,4 hPa 0,0 l/m 1,9 km/h NW 12,92 h 3,3 UV-I 443 W/m 3,6 km/h
11.07.2010 26,8 C 64 % 1014,6 hPa 0,0 l/m 0,6 km/h S 7,50 h 2,9 UV-I 340 W/m 2,8 km/h
12.07.2010 25,5 C 64 % 1010,5 hPa 0,2 l/m 2,3 km/h S 8,67 h 3,0 UV-I 344 W/m 5,6 km/h
13.07.2010 22,9 C 62 % 1010,1 hPa 0,0 l/m 1,2 km/h NW 8,58 h 3,3 UV-I 387 W/m 4,4 km/h
14.07.2010 22,9 C 70 % 1007,4 hPa 7,8 l/m 8,6 km/h SO 8,58 h 3,2 UV-I 389 W/m 20,1 km/h
15.07.2010 20,0 C 59 % 1012,9 hPa 0,2 l/m 6,6 km/h S 8,58 h 3,2 UV-I 396 W/m 13,3 km/h
16.07.2010 23,6 C 57 % 1014,4 hPa 0,0 l/m 4,7 km/h S 12,58 h 3,9 UV-I 458 W/m 8,5 km/h
17.07.2010 19,2 C 66 % 1018,6 hPa 0,0 l/m 4,4 km/h NW 3,42 h 2,2 UV-I 220 W/m 12,1 km/h
18.07.2010 17,8 C 61 % 1025,6 hPa 0,0 l/m 0,4 km/h N-NW 12,25 h 3,4 UV-I 474 W/m 2,0 km/h
19.07.2010 20,7 C 55 % 1021,8 hPa 0,0 l/m 0,5 km/h SO 12,92 h 3,7 UV-I 464 W/m 2,0 km/h
20.07.2010 22,8 C 49 % 1013,5 hPa 0,0 l/m 2,4 km/h SO 12,83 h 3,8 UV-I 466 W/m 8,8 km/h
21.07.2010 25,3 C 52 % 1007,2 hPa 0,2 l/m 4,6 km/h S 8,50 h 3,2 UV-I 372 W/m 13,3 km/h
22.07.2010 18,4 C 87 % 1013,0 hPa 11,6 l/m 0,9 km/h W-NW 1,58 h 1,6 UV-I 140 W/m 4,0 km/h
23.07.2010 18,9 C 83 % 1015,4 hPa 9,6 l/m 2,1 km/h N-NO 2,42 h 2,3 UV-I 249 W/m 8,9 km/h
24.07.2010 15,5 C 64 % 1017,9 hPa 0,0 l/m 8,8 km/h N-NW 3,08 h 2,2 UV-I 245 W/m 17,3 km/h
25.07.2010 15,0 C 76 % 1015,1 hPa 0,0 l/m 4,9 km/h N-NW 9,75 h 3,0 UV-I 410 W/m 13,3 km/h
26.07.2010 16,0 C 85 % 1011,7 hPa 2,2 l/m 1,8 km/h S 2,00 h 1,8 UV-I 202 W/m 6,8 km/h
27.07.2010 17,9 C 75 % 1016,2 hPa 0,2 l/m 2,6 km/h N-NW 6,67 h 2,5 UV-I 323 W/m 7,6 km/h
28.07.2010 17,3 C 78 % 1012,7 hPa 4,4 l/m 3,8 km/h S 2,67 h 2,2 UV-I 186 W/m 9,2 km/h
29.07.2010 14,7 C 88 % 1010,0 hPa 6,6 l/m 4,2 km/h NW 2,50 h 2,2 UV-I 237 W/m 11,6 km/h
30.07.2010 16,3 C 73 % 1014,3 hPa 0,0 l/m 3,8 km/h W-NW 6,67 h 3,0 UV-I 352 W/m 10,8 km/h
31.07.2010 18,8 C 70 % 1014,2 hPa 0,2 l/m 3,5 km/h S 6,75 h 2,7 UV-I 313 W/m 8,4 km/h
01.08.2010 18,6 C 88 % 1012,8 hPa 10,2 l/m 4,9 km/h S 2,83 h 2,5 UV-I 251 W/m 8,0 km/h
02.08.2010 17,2 C 83 % 1013,9 hPa 0,2 l/m 1,9 km/h N-NW 5,67 h 2,4 UV-I 290 W/m 6,4 km/h
03.08.2010 16,0 C 83 % 1013,8 hPa 1,2 l/m 3,3 km/h N-NW 4,50 h 2,5 UV-I 257 W/m 9,3 km/h
04.08.2010 16,8 C 84 % 1007,8 hPa 4,0 l/m 4,5 km/h S 2,58 h 2,3 UV-I 216 W/m 12,4 km/h
05.08.2010 16,3 C 81 % 1008,9 hPa 3,0 l/m 4,0 km/h NW 3,83 h 2,3 UV-I 258 W/m 9,7 km/h
06.08.2010 16,8 C 77 % 1016,9 hPa 0,0 l/m 1,8 km/h NW 3,58 h 2,1 UV-I 244 W/m 4,4 km/h
07.08.2010 17,1 C 70 % 1016,8 hPa 0,0 l/m 1,3 km/h NW 11,75 h 3,1 UV-I 434 W/m 3,6 km/h
08.08.2010 15,8 C 93 % 1014,5 hPa 12,2 l/m 2,0 km/h N-NW 0,58 h 1,3 UV-I 133 W/m 4,4 km/h
09.08.2010 16,0 C 86 % 1016,4 hPa 0,4 l/m 1,9 km/h NW 3,17 h 2,5 UV-I 244 W/m 6,4 km/h
10.08.2010 19,3 C 68 % 1013,2 hPa 0,0 l/m 3,3 km/h S 7,75 h 2,7 UV-I 342 W/m 7,6 km/h
11.08.2010 17,5 C 91 % 1012,3 hPa 5,0 l/m 2,6 km/h S 3,75 h 1,7 UV-I 197 W/m 6,0 km/h
12.08.2010 17,1 C 84 % 1012,5 hPa 0,8 l/m 1,8 km/h NW 3,42 h 2,0 UV-I 191 W/m 5,2 km/h
13.08.2010 15,3 C 85 % 1016,6 hPa 0,2 l/m 0,9 km/h N-NW 4,58 h 2,2 UV-I 257 W/m 4,4 km/h
14.08.2010 18,0 C 73 % 1016,7 hPa 0,0 l/m 2,1 km/h N-NO 9,67 h 2,7 UV-I 391 W/m 4,4 km/h
15.08.2010 15,1 C 96 % 1010,0 hPa 5,0 l/m 6,5 km/h N-NO 0,00 h 0,8 UV-I 51 W/m 16,1 km/h
16.08.2010 13,9 C 96 % 1007,6 hPa 7,2 l/m 3,1 km/h S-SO 0,00 h 0,7 UV-I 68 W/m 10,0 km/h
17.08.2010 13,5 C 94 % 1006,3 hPa 13,0 l/m 8,1 km/h S 1,00 h 1,8 UV-I 127 W/m 18,9 km/h
18.08.2010 14,1 C 95 % 1006,5 hPa 5,6 l/m 2,3 km/h S 1,08 h 1,6 UV-I 151 W/m 12,5 km/h
19.08.2010 14,2 C 83 % 1016,1 hPa 0,2 l/m 2,9 km/h S 6,83 h 2,5 UV-I 337 W/m 8,4 km/h
20.08.2010 17,4 C 78 % 1020,2 hPa 0,0 l/m 1,8 km/h S 11,58 h 3,3 UV-I 415 W/m 6,4 km/h
21.08.2010 20,9 C 77 % 1020,7 hPa 0,0 l/m 2,3 km/h S 11,42 h 3,0 UV-I 404 W/m 6,4 km/h
22.08.2010 18,8 C 88 % 1013,9 hPa 10,8 l/m 2,9 km/h S 1,92 h 2,5 UV-I 195 W/m 8,4 km/h
23.08.2010 18,3 C 90 % 1002,2 hPa 1,6 l/m 9,6 km/h S 0,58 h 1,3 UV-I 129 W/m 18,1 km/h
24.08.2010 15,6 C 72 % 1007,6 hPa 0,2 l/m 7,8 km/h S 5,92 h 2,6 UV-I 318 W/m 22,1 km/h
25.08.2010 14,4 C 81 % 1014,5 hPa 0,0 l/m 4,0 km/h S-SW 3,25 h 2,0 UV-I 213 W/m 10,9 km/h
26.08.2010 16,6 C 92 % 1006,9 hPa 19,2 l/m 3,5 km/h S 0,00 h 0,9 UV-I 67 W/m 7,6 km/h
27.08.2010 13,9 C 96 % 1003,6 hPa 21,0 l/m 13,0 km/h S 0,00 h 1,1 UV-I 86 W/m 22,5 km/h
28.08.2010 11,7 C 92 % 1014,6 hPa 2,8 l/m 3,3 km/h NW 2,25 h 1,9 UV-I 218 W/m 13,3 km/h
29.08.2010 10,1 C 91 % 1008,6 hPa 12,8 l/m 13,2 km/h S 0,42 h 1,3 UV-I 104 W/m 28,6 km/h
30.08.2010 9,5 C 96 % 1012,1 hPa 11,8 l/m 12,6 km/h N-NW 0,92 h 0,8 UV-I 115 W/m 21,8 km/h
31.08.2010 12,2 C 90 % 1021,5 hPa 0,2 l/m 1,2 km/h N-NW 4,17 h 2,1 UV-I 283 W/m 4,8 km/h
01.09.2010 11,9 C 91 % 1020,0 hPa 0,4 l/m 2,5 km/h NW 1,17 h 1,7 UV-I 144 W/m 5,6 km/h
02.09.2010 12,5 C 93 % 1019,5 hPa 0,2 l/m 1,4 km/h NW 0,33 h 1,4 UV-I 130 W/m 5,2 km/h
03.09.2010 13,0 C 88 % 1020,0 hPa 0,0 l/m 0,9 km/h N-NO 1,42 h 1,5 UV-I 192 W/m 2,4 km/h
04.09.2010 11,4 C 83 % 1021,0 hPa 0,0 l/m 1,8 km/h N-NO 4,50 h 1,8 UV-I 249 W/m 4,0 km/h
05.09.2010 11,3 C 81 % 1023,1 hPa 0,2 l/m 1,9 km/h O-SO 8,50 h 2,3 UV-I 382 W/m 6,0 km/h
06.09.2010 12,0 C 71 % 1017,7 hPa 0,0 l/m 3,7 km/h SO 9,58 h 2,3 UV-I 381 W/m 10,9 km/h
07.09.2010 12,1 C 77 % 1007,9 hPa 0,0 l/m 8,6 km/h SO 1,50 h 1,2 UV-I 152 W/m 19,7 km/h
08.09.2010 13,2 C 92 % 1006,1 hPa 2,4 l/m 8,7 km/h SO 0,00 h 0,9 UV-I 62 W/m 20,1 km/h
09.09.2010 13,4 C 94 % 1013,3 hPa 4,8 l/m 3,3 km/h S 0,25 h 1,2 UV-I 116 W/m 11,3 km/h
10.09.2010 13,1 C 93 % 1020,5 hPa 0,0 l/m 2,3 km/h S-SW 0,92 h 1,3 UV-I 150 W/m 9,6 km/h
11.09.2010 15,4 C 84 % 1019,0 hPa 0,2 l/m 5,4 km/h S 6,83 h 2,3 UV-I 303 W/m 10,4 km/h
12.09.2010 14,8 C 89 % 1019,1 hPa 7,6 l/m 3,8 km/h N-NW 3,58 h 2,1 UV-I 207 W/m 7,7 km/h
13.09.2010 12,9 C 88 % 1023,7 hPa 0,2 l/m 3,3 km/h NW 2,25 h 1,6 UV-I 189 W/m 8,1 km/h
14.09.2010 13,6 C 97 % 1014,3 hPa 28,4 l/m 7,1 km/h S 0,00 h 0,8 UV-I 43 W/m 15,7 km/h
15.09.2010 12,2 C 76 % 1007,2 hPa 9,0 l/m 8,1 km/h S 3,42 h 1,7 UV-I 241 W/m 18,9 km/h
16.09.2010 10,6 C 88 % 1008,2 hPa 5,6 l/m 7,5 km/h S 3,25 h 1,3 UV-I 198 W/m 15,3 km/h
17.09.2010 9,6 C 89 % 1012,2 hPa 5,6 l/m 5,9 km/h S 1,42 h 1,2 UV-I 141 W/m 19,3 km/h
18.09.2010 8,3 C 88 % 1017,0 hPa 1,2 l/m 3,3 km/h S 1,83 h 1,5 UV-I 184 W/m 12,9 km/h
19.09.2010 9,9 C 82 % 1016,9 hPa 0,2 l/m 3,7 km/h S 5,25 h 1,7 UV-I 242 W/m 8,4 km/h
20.09.2010 13,8 C 77 % 1015,2 hPa 0,0 l/m 3,3 km/h S 2,92 h 1,8 UV-I 227 W/m 9,6 km/h
21.09.2010 12,3 C 91 % 1021,1 hPa 0,0 l/m 0,8 km/h S 3,42 h 1,4 UV-I 181 W/m 2,8 km/h
22.09.2010 14,2 C 86 % 1019,5 hPa 0,2 l/m 3,9 km/h S 8,25 h 2,2 UV-I 310 W/m 8,0 km/h
23.09.2010 15,8 C 82 % 1010,1 hPa 0,0 l/m 4,5 km/h S 6,67 h 2,2 UV-I 282 W/m 9,3 km/h
24.09.2010 12,8 C 96 % 1001,0 hPa 11,2 l/m 3,2 km/h S 0,00 h 0,6 UV-I 40 W/m 8,1 km/h
25.09.2010 10,0 C 88 % 1005,0 hPa 1,4 l/m 3,9 km/h N-NW 0,42 h 1,0 UV-I 116 W/m 8,0 km/h
26.09.2010 7,6 C 87 % 1008,2 hPa 0,0 l/m 1,0 km/h S-SW 4,58 h 1,7 UV-I 251 W/m 2,4 km/h
27.09.2010 8,2 C 97 % 1009,9 hPa 22,6 l/m 6,0 km/h W 0,00 h 0,6 UV-I 30 W/m 18,1 km/h
28.09.2010 8,5 C 97 % 1016,2 hPa 3,0 l/m 1,0 km/h N-NW 0,00 h 0,8 UV-I 63 W/m 1,6 km/h
29.09.2010 7,5 C 89 % 1020,3 hPa 0,2 l/m 1,1 km/h NO 1,50 h 1,3 UV-I 156 W/m 6,0 km/h
30.09.2010 8,8 C 91 % 1016,2 hPa 0,0 l/m 8,4 km/h SO 3,58 h 1,4 UV-I 199 W/m 18,5 km/h
01.10.2010 10,4 C 95 % 1013,8 hPa 1,2 l/m 4,7 km/h S-SO 0,33 h 1,1 UV-I 110 W/m 11,7 km/h
02.10.2010 11,8 C 95 % 1012,3 hPa 1,4 l/m 11,2 km/h S-SO 0,08 h 1,0 UV-I 98 W/m 20,1 km/h
03.10.2010 15,8 C 86 % 1007,6 hPa 0,6 l/m 8,4 km/h SO 3,83 h 1,4 UV-I 201 W/m 20,9 km/h
04.10.2010 14,1 C 86 % 1003,4 hPa 0,0 l/m 7,0 km/h S-SO 7,08 h 1,6 UV-I 240 W/m 17,3 km/h
05.10.2010 14,3 C 90 % 1007,1 hPa 0,0 l/m 3,0 km/h S 3,50 h 1,6 UV-I 184 W/m 6,8 km/h
06.10.2010 14,8 C 89 % 1013,3 hPa 0,0 l/m 7,7 km/h S-SO 2,00 h 1,4 UV-I 166 W/m 11,7 km/h
07.10.2010 14,1 C 95 % 1020,9 hPa 0,0 l/m 1,3 km/h O 0,25 h 1,1 UV-I 127 W/m 5,6 km/h
08.10.2010 13,1 C 85 % 1020,0 hPa 0,0 l/m 5,4 km/h SO 3,83 h 1,2 UV-I 169 W/m 12,1 km/h
09.10.2010 11,6 C 72 % 1018,6 hPa 0,0 l/m 4,8 km/h SO 5,67 h 1,7 UV-I 249 W/m 14,9 km/h
10.10.2010 10,0 C 69 % 1015,9 hPa 0,0 l/m 2,4 km/h O 6,75 h 1,6 UV-I 262 W/m 10,9 km/h
11.10.2010 8,3 C 75 % 1017,3 hPa 0,0 l/m 2,6 km/h N-NO 6,67 h 1,6 UV-I 257 W/m 8,8 km/h
12.10.2010 4,7 C 91 % 1018,1 hPa 0,0 l/m 1,3 km/h N-NO 3,75 h 1,2 UV-I 192 W/m 4,8 km/h
13.10.2010 5,1 C 87 % 1017,5 hPa 0,0 l/m 0,9 km/h SO 5,25 h 1,4 UV-I 225 W/m 4,0 km/h
14.10.2010 5,1 C 96 % 1016,7 hPa 1,6 l/m 0,6 km/h N-NW 0,00 h 0,8 UV-I 75 W/m 2,8 km/h
15.10.2010 8,5 C 95 % 1011,5 hPa 5,8 l/m 6,0 km/h N-NW 0,17 h 0,9 UV-I 79 W/m 12,1 km/h
16.10.2010 4,8 C 96 % 1013,1 hPa 7,0 l/m 8,7 km/h N-NO 0,00 h 0,6 UV-I 44 W/m 16,9 km/h
17.10.2010 3,8 C 94 % 1022,3 hPa 0,0 l/m 2,4 km/h N-NO 0,00 h 0,6 UV-I 46 W/m 5,6 km/h
18.10.2010 2,4 C 93 % 1019,3 hPa 0,2 l/m 5,3 km/h S 0,67 h 1,0 UV-I 105 W/m 8,5 km/h
19.10.2010 6,4 C 94 % 1004,4 hPa 2,4 l/m 5,6 km/h S 0,58 h 0,9 UV-I 79 W/m 14,9 km/h
20.10.2010 4,5 C 91 % 1009,8 hPa 5,0 l/m 9,9 km/h NW 1,08 h 0,8 UV-I 100 W/m 22,9 km/h
21.10.2010 3,6 C 83 % 1020,6 hPa 0,2 l/m 10,2 km/h S-SW 0,58 h 0,6 UV-I 71 W/m 23,3 km/h
22.10.2010 5,1 C 86 % 1018,2 hPa 0,0 l/m 5,0 km/h S 1,25 h 1,0 UV-I 133 W/m 10,1 km/h
23.10.2010 5,1 C 86 % 1005,8 hPa 1,4 l/m 12,2 km/h S 1,83 h 0,9 UV-I 131 W/m 21,7 km/h
24.10.2010 4,6 C 91 % 1008,6 hPa 3,4 l/m 5,6 km/h S 0,83 h 0,6 UV-I 75 W/m 15,3 km/h
25.10.2010 3,7 C 93 % 1022,9 hPa 0,0 l/m 1,2 km/h N-NW 2,33 h 0,8 UV-I 128 W/m 3,6 km/h
26.10.2010 5,4 C 89 % 1027,6 hPa 0,0 l/m 3,8 km/h S 3,67 h 0,9 UV-I 146 W/m 8,4 km/h
27.10.2010 6,7 C 88 % 1021,8 hPa 0,8 l/m 6,1 km/h S 0,25 h 0,6 UV-I 62 W/m 12,5 km/h
28.10.2010 9,1 C 89 % 1019,1 hPa 0,6 l/m 6,8 km/h S 2,67 h 0,9 UV-I 101 W/m 15,7 km/h
29.10.2010 9,4 C 80 % 1009,2 hPa 0,2 l/m 14,5 km/h S-SO 5,08 h 1,0 UV-I 168 W/m 27,0 km/h
30.10.2010 10,6 C 86 % 1004,2 hPa 0,0 l/m 4,0 km/h S 0,33 h 0,8 UV-I 71 W/m 9,7 km/h
31.10.2010 7,7 C 92 % 1003,9 hPa 1,8 l/m 1,1 km/h SO 2,50 h 0,8 UV-I 111 W/m 5,2 km/h
01.11.2010 6,9 C 96 % 1011,3 hPa 0,2 l/m 0,8 km/h NW 1,58 h 0,8 UV-I 120 W/m 3,2 km/h
02.11.2010 9,1 C 90 % 1013,1 hPa 0,0 l/m 9,6 km/h S 0,58 h 0,8 UV-I 80 W/m 17,7 km/h
03.11.2010 10,7 C 93 % 1012,8 hPa 9,8 l/m 10,9 km/h S-SW 0,00 h 0,5 UV-I 35 W/m 25,7 km/h
04.11.2010 13,0 C 92 % 1017,3 hPa 3,6 l/m 14,5 km/h S-SW 0,00 h 0,5 UV-I 22 W/m 29,4 km/h
05.11.2010 11,3 C 97 % 1016,9 hPa 10,0 l/m 12,6 km/h S-SW 0,00 h 0,0 UV-I 21 W/m 29,8 km/h
06.11.2010 7,3 C 96 % 1011,0 hPa 20,0 l/m 5,8 km/h W 0,00 h 0,6 UV-I 39 W/m 16,1 km/h
07.11.2010 3,5 C 94 % 1002,8 hPa 0,8 l/m 2,5 km/h NO 0,00 h 0,6 UV-I 67 W/m 9,6 km/h
08.11.2010 2,5 C 95 % 984,1 hPa 0,4 l/m 8,4 km/h SO 0,00 h 0,6 UV-I 57 W/m 17,3 km/h
09.11.2010 5,0 C 96 % 981,3 hPa 6,4 l/m 6,3 km/h SO 0,50 h 0,5 UV-I 72 W/m 11,3 km/h
10.11.2010 4,6 C 97 % 993,0 hPa 8,2 l/m 6,0 km/h S-SO 0,17 h 0,5 UV-I 58 W/m 12,5 km/h
11.11.2010 4,3 C 90 % 994,9 hPa 10,2 l/m 21,5 km/h S 0,92 h 0,6 UV-I 86 W/m 34,2 km/h
12.11.2010 8,4 C 87 % 992,5 hPa 9,8 l/m 9,5 km/h S-SW 1,08 h 0,7 UV-I 96 W/m 25,0 km/h
13.11.2010 9,1 C 98 % 996,2 hPa 42,2 l/m 7,1 km/h S 0,00 h 0,0 UV-I 28 W/m 14,5 km/h
14.11.2010 12,0 C 85 % 998,9 hPa 5,0 l/m 11,9 km/h S 1,17 h 0,8 UV-I 92 W/m 19,7 km/h
15.11.2010 5,9 C 90 % 1014,4 hPa 0,0 l/m 1,0 km/h W-NW 0,00 h 0,6 UV-I 70 W/m 3,2 km/h
16.11.2010 4,1 C 92 % 1020,9 hPa 0,2 l/m 2,1 km/h N-NO 0,75 h 0,7 UV-I 78 W/m 6,4 km/h
17.11.2010 3,0 C 92 % 1012,0 hPa 0,2 l/m 2,3 km/h O-NO 0,08 h 0,5 UV-I 46 W/m 8,9 km/h
18.11.2010 3,8 C 96 % 1010,6 hPa 0,4 l/m 1,0 km/h SO 0,00 h 0,5 UV-I 42 W/m 2,8 km/h
19.11.2010 5,0 C 94 % 1015,4 hPa 0,2 l/m 0,8 km/h S 0,00 h 0,5 UV-I 58 W/m 1,6 km/h
20.11.2010 4,9 C 96 % 1015,0 hPa 1,6 l/m 4,9 km/h S 0,58 h 0,5 UV-I 73 W/m 8,8 km/h
21.11.2010 3,2 C 88 % 1009,4 hPa 0,2 l/m 6,1 km/h N-NO 3,75 h 0,7 UV-I 129 W/m 18,5 km/h
22.11.2010 2,4 C 96 % 1001,9 hPa 0,8 l/m 12,9 km/h N 0,00 h 0,0 UV-I 24 W/m 24,6 km/h
23.11.2010 1,5 C 97 % 1001,2 hPa 16,2 l/m 7,9 km/h N-NW 0,00 h 0,0 UV-I 13 W/m 20,9 km/h
24.11.2010 0,3 C 97 % 1004,8 hPa 5,4 l/m 2,2 km/h NW 0,00 h 0,5 UV-I 45 W/m 6,8 km/h
25.11.2010 0,1 C 97 % 1002,3 hPa 0,4 l/m 0,1 km/h S 0,00 h 0,0 UV-I 29 W/m 0,8 km/h
26.11.2010 -2,8 C 94 % 1004,5 hPa 0,2 l/m 0,1 km/h W-NW 0,00 h 0,0 UV-I 24 W/m 0,8 km/h
27.11.2010 -4,5 C 93 % 1006,5 hPa 0,0 l/m 1,7 km/h SO 0,08 h 0,0 UV-I 49 W/m 4,0 km/h
28.11.2010 -4,3 C 93 % 1007,5 hPa 0,0 l/m 1,0 km/h N 0,00 h 0,0 UV-I 51 W/m 5,2 km/h
29.11.2010 -3,3 C 93 % 1010,0 hPa 0,0 l/m 4,4 km/h N-NO 0,00 h 0,0 UV-I 28 W/m 14,1 km/h
30.11.2010 -5,2 C 86 % 1014,7 hPa 0,0 l/m 8,5 km/h NO 0,00 h 0,0 UV-I 35 W/m 21,7 km/h
01.12.2010 -9,5 C 86 % 1007,8 hPa 0,0 l/m 10,9 km/h O-NO 2,07 h 0,6 UV-I 97 W/m 29,0 km/h
02.12.2010 -10,4 C 88 % 1009,5 hPa 0,0 l/m 1,1 km/h NO 0,17 h 0,0 UV-I 69 W/m 3,6 km/h
03.12.2010 -8,3 C 90 % 1012,8 hPa 0,0 l/m 1,7 km/h S-SW 0,25 h 0,0 UV-I 68 W/m 3,2 km/h
04.12.2010 -5,2 C 90 % 1015,0 hPa 0,0 l/m 15,3 km/h S 4,00 h 0,6 UV-I 114 W/m 26,5 km/h
05.12.2010 -0,2 C 98 % 1002,9 hPa 0,0 l/m 6,8 km/h S 0,00 h 0,0 UV-I 25 W/m 13,7 km/h
06.12.2010 -3,9 C 97 % 1002,4 hPa 0,0 l/m 0,0 km/h S 0,00 h 0,0 UV-I 28 W/m 0,0 km/h
07.12.2010 -3,3 C 97 % 1005,3 hPa 0,0 l/m 3,7 km/h NO 0,00 h 0,0 UV-I 20 W/m 10,4 km/h
08.12.2010 -3,2 C 96 % 1006,6 hPa 0,0 l/m 4,5 km/h N-NO 0,00 h 0,0 UV-I 14 W/m 12,1 km/h
09.12.2010 -0,9 C 97 % 1019,3 hPa 0,0 l/m 7,2 km/h NW 0,00 h 0,0 UV-I 8 W/m 19,7 km/h
10.12.2010 0,3 C 98 % 1025,1 hPa 0,0 l/m 8,6 km/h NW 0,00 h 0,0 UV-I 12 W/m 18,1 km/h
11.12.2010 3,1 C 99 % 1014,0 hPa 14,8 l/m 19,3 km/h W 0,00 h 0,0 UV-I 30 W/m 41,5 km/h
12.12.2010 -1,6 C 92 % 1016,7 hPa 3,8 l/m 10,5 km/h N-NW 0,00 h 0,0 UV-I 26 W/m 20,9 km/h
13.12.2010 -5,8 C 92 % 1022,8 hPa 0,0 l/m 1,5 km/h W 0,42 h 0,5 UV-I 70 W/m 6,0 km/h
14.12.2010 -4,8 C 93 % 1028,3 hPa 0,0 l/m 6,9 km/h N-NW 0,00 h 0,0 UV-I 11 W/m 15,3 km/h
15.12.2010 -6,0 C 94 % 1025,4 hPa 0,0 l/m 2,8 km/h N-NW 0,00 h 0,0 UV-I 13 W/m 7,6 km/h
16.12.2010 -5,1 C 96 % 1001,7 hPa 0,0 l/m 5,5 km/h S 0,00 h 0,0 UV-I 18 W/m 10,0 km/h
17.12.2010 -4,5 C 97 % 995,4 hPa 0,0 l/m 3,0 km/h S 0,00 h 0,0 UV-I 22 W/m 5,6 km/h
18.12.2010 -8,7 C 94 % 1000,7 hPa 0,0 l/m 3,9 km/h S 0,00 h 0,0 UV-I 24 W/m 5,6 km/h
19.12.2010 -3,7 C 97 % 993,2 hPa 0,0 l/m 9,9 km/h SO 0,00 h 0,0 UV-I 18 W/m 17,3 km/h
20.12.2010 -9,5 C 94 % 1005,9 hPa 0,0 l/m 2,7 km/h W-NW 0,00 h 0,0 UV-I 27 W/m 6,4 km/h
21.12.2010 -3,3 C 97 % 1006,7 hPa 0,0 l/m 1,8 km/h S-SO 0,00 h 0,0 UV-I 21 W/m 4,8 km/h
22.12.2010 -0,4 C 99 % 1003,5 hPa 0,2 l/m 0,8 km/h SO 0,00 h 0,0 UV-I 24 W/m 4,4 km/h
23.12.2010 -1,7 C 98 % 1001,3 hPa 0,4 l/m 5,5 km/h N-NO 0,00 h 0,0 UV-I 22 W/m 9,6 km/h
24.12.2010 -4,3 C 96 % 1008,4 hPa 0,0 l/m 9,8 km/h N-NO 0,00 h 0,0 UV-I 22 W/m 16,9 km/h
25.12.2010 -8,6 C 94 % 1023,4 hPa 0,0 l/m 2,9 km/h N-NW 0,17 h 0,0 UV-I 70 W/m 9,6 km/h
26.12.2010 -3,0 C 97 % 1023,6 hPa 0,0 l/m 1,1 km/h W 0,00 h 0,0 UV-I 28 W/m 5,6 km/h
27.12.2010 -1,9 C 99 % 1021,4 hPa 0,0 l/m 3,4 km/h NW 0,00 h 0,0 UV-I 18 W/m 9,3 km/h
28.12.2010 -4,3 C 96 % 1022,3 hPa 0,0 l/m 8,3 km/h S-SO 0,00 h 0,0 UV-I 41 W/m 14,5 km/h
29.12.2010 -7,5 C 95 % 1024,9 hPa 0,0 l/m 2,3 km/h S-SO 0,42 h 0,0 UV-I 57 W/m 5,2 km/h
30.12.2010 -3,4 C 97 % 1025,3 hPa 0,0 l/m 0,4 km/h S-SO 0,00 h 0,0 UV-I 30 W/m 2,0 km/h
31.12.2010 -0,6 C 99 % 1023,6 hPa 0,0 l/m 0,0 km/h W 0,00 h 0,0 UV-I 17 W/m 0,0 km/h
Min-Datum 27.01.10 18.04.10 09.11.10 174 Tage 01.01.10 - - - - 01.01.10
Min-Zeit 02:40 15:35 04:05 - 00:00 - - - - 00:00
Minimum -14,8 C 30 % 978,7 hPa - 0,0 km/h - - - - 0,0 km/h
Max-Datum 10.07.10 05.01.10 26.01.10 13.11.10 28.02.10 - 17.06.10 05.07.10 13.06.10 28.02.10
Max-Zeit 16:05 18:10 21:00 04:55 17:40 - 20:10 13:15 14:55 18:40
Maximum 35,4 C 100 % 1042,0 hPa 42,2 l/m 43,2 km/h
S-SO
- 13,00 h 8,5 UV-I 1204 W/m 70,8 km/h
S-SO
Durchschnitt 7,6 C 84 % 1013,4 hPa #791,4 l/m 5,1 km/h S #1210:17 h 1,7 UV-I 182 W/m 11,7 km/h

Durchschnitt Minimum Temp.3,6 C
Durchschnitt Maximum Temp.11,5 C